Ludington, MI

10:06 PM EDT on September 26, 2016 (GMT -0400)
Mason County

Weather History for KLDM - July, 2013

Change the Weather History Date:

Thursday, July 25, 2013

  Actual Average Record
Temperature  
Mean Temperature 58 °F -  
Max Temperature 75 °F 81 °F 90 °F (1987)
Min Temperature 42 °F 58 °F 42 °F (2004)
Degree Days  
Heating Degree Days 6    
Growing Degree Days 8 (Base 50)    
Moisture  
Dew Point 47 °F    
Average Humidity 62    
Maximum Humidity 92    
Minimum Humidity 29    
Precipitation  
Precipitation 0.00 in - - ()
Sea Level Pressure  
Sea Level Pressure 30.07 in    
Wind  
Wind Speed 4 mph (SSW)    
Max Wind Speed 16 mph    
Max Gust Speed 22 mph    
Visibility 10 miles    
Events      
Averages and records for this station are not official NWS values.
T = Trace of Precipitation, MM = Missing Value Source: NWS Daily Summary

Daily Weather History Graph

Daily Weather History Graph

Search for Another Location

Airport or City:

Trip Planner

Search our weather history database for the weather conditions in past years. The results will help you decide how hot, cold, wet, or windy it might be!

Date:

Astronomy

Jul. 25, 2013 Rise Set
Actual Time 6:26 AM EDT 9:16 PM EDT
Civil Twilight 5:52 AM EDT 9:50 PM EDT
Nautical Twilight 5:10 AM EDT 10:33 PM EDT
Astronomical Twilight 4:20 AM EDT 11:22 PM EDT
Moon 10:46 PM EDT (7/25) 10:04 AM EDT (7/25)
Length of Visible Light 15h 57m
Length of Day
14h 50m
Waning Gibbous, 88% of the Moon is Illuminated
Jul 25
Waning Gibbous
Jul 29
Last Quarter
Aug 6
New
Aug 14
First Quarter
Aug 20
Full

Hourly Weather History & Observations

Time (EDT) Temp. Dew Point Humidity Pressure Visibility Wind Dir Wind Speed Gust Speed Precip Events Conditions
12:15 AM 50.2 °F 46.8 °F 88% 30.06 in 10.0 mi Calm Calm - N/A   Clear
12:35 AM 50.2 °F 46.9 °F 89% 30.07 in 10.0 mi Calm Calm - N/A   Clear
12:55 AM 50.2 °F 46.9 °F 89% 30.07 in 10.0 mi Calm Calm - N/A   Clear
1:15 AM 48.6 °F 45.3 °F 89% 30.07 in 10.0 mi East 3.5 mph - N/A   Clear
1:35 AM 49.5 °F 46.6 °F 90% 30.06 in 10.0 mi Calm Calm - N/A   Clear
1:55 AM 47.7 °F 44.8 °F 90% 30.07 in 1.2 mi Calm Calm - N/A   Mist
2:15 AM 47.7 °F 44.8 °F 90% 30.06 in 10.0 mi Calm Calm - N/A   Clear
2:35 AM 47.1 °F 44.4 °F 90% 30.06 in 3.0 mi Calm Calm - N/A   Clear
2:55 AM 47.7 °F 45.0 °F 90% 30.06 in 10.0 mi Calm Calm - N/A   Clear
3:15 AM 46.6 °F 43.9 °F 90% 30.05 in 10.0 mi East 3.5 mph - N/A   Clear
3:35 AM 44.4 °F 41.9 °F 91% 30.05 in 7.0 mi Calm Calm - N/A   Clear
3:55 AM 43.0 °F 40.3 °F 90% 30.05 in 1.2 mi Calm Calm - N/A   Mist
4:15 AM 43.9 °F 41.4 °F 91% 30.05 in 7.0 mi Calm Calm - N/A   Clear
4:35 AM 43.2 °F 40.6 °F 91% 30.05 in 10.0 mi Calm Calm - N/A   Clear
4:55 AM 43.5 °F 41.0 °F 91% 30.06 in 5.0 mi Calm Calm - N/A   Clear
5:15 AM 42.3 °F 39.7 °F 91% 30.07 in 10.0 mi Calm Calm - N/A   Clear
5:35 AM 43.5 °F 41.0 °F 91% 30.07 in 10.0 mi Calm Calm - N/A   Clear
5:55 AM 43.9 °F 41.4 °F 91% 30.07 in 7.0 mi Calm Calm - N/A   Clear
6:16 AM 43.2 °F 40.6 °F 91% 30.08 in 10.0 mi Calm Calm - N/A   Clear
6:35 AM 44.8 °F 42.3 °F 91% 30.08 in 10.0 mi Calm Calm - N/A   Clear
6:55 AM 47.7 °F 45.1 °F 91% 30.08 in 10.0 mi Calm Calm - N/A   Clear
7:15 AM 47.7 °F 45.1 °F 91% 30.08 in 10.0 mi Calm Calm - N/A   Clear
7:35 AM 49.3 °F 46.8 °F 91% 30.09 in 10.0 mi Calm Calm - N/A   Clear
7:56 AM 50.9 °F 48.6 °F 92% 30.09 in 10.0 mi Calm Calm - N/A   Clear
8:15 AM 55.4 °F 51.8 °F 88% 30.10 in 10.0 mi Calm Calm - N/A   Clear
8:35 AM 57.9 °F 51.1 °F 78% 30.10 in 10.0 mi Calm Calm - N/A   Clear
8:55 AM 60.4 °F 50.0 °F 68% 30.10 in 10.0 mi Calm Calm - N/A   Clear
9:15 AM 62.8 °F 50.7 °F 65% 30.09 in 10.0 mi Calm Calm - N/A   Clear
9:36 AM 68.0 °F 51.1 °F 55% 30.10 in 10.0 mi SSW 3.5 mph - N/A   Clear
9:55 AM 70.3 °F 49.1 °F 47% 30.09 in 10.0 mi SSW 3.5 mph - N/A   Clear
10:15 AM 70.3 °F 45.1 °F 40% 30.09 in 10.0 mi SW 5.8 mph - N/A   Clear
10:35 AM 70.3 °F 43.0 °F 37% 30.09 in 10.0 mi SW 8.1 mph - N/A   Clear
10:55 AM 71.2 °F 45.0 °F 39% 30.09 in 10.0 mi SSW 9.2 mph - N/A   Clear
11:15 AM 71.6 °F 45.0 °F 38% 30.10 in 10.0 mi WSW 9.2 mph - N/A   Clear
11:35 AM 71.2 °F 48.4 °F 44% 30.11 in 10.0 mi SW 11.5 mph - N/A   Clear
11:55 AM 70.7 °F 51.4 °F 50% 30.11 in 10.0 mi SW 10.4 mph - N/A   Clear
12:15 PM 72.3 °F 49.5 °F 44% 30.11 in 10.0 mi SW 9.2 mph - N/A   Clear
12:35 PM 72.7 °F 51.3 °F 47% 30.11 in 10.0 mi SW 11.5 mph - N/A   Clear
12:55 PM 72.9 °F 54.7 °F 53% 30.11 in 10.0 mi West 11.5 mph - N/A   Clear
1:15 PM 71.4 °F 52.3 °F 51% 30.11 in 10.0 mi WSW 12.7 mph - N/A   Clear
1:35 PM 71.2 °F 54.0 °F 54% 30.10 in 10.0 mi West 12.7 mph - N/A   Clear
1:56 PM 75.0 °F 55.9 °F 51% 30.09 in 10.0 mi SW 10.4 mph 16.1 mph N/A   Clear
2:15 PM 73.0 °F 52.9 °F 49% 30.09 in 10.0 mi SW 11.5 mph 17.3 mph N/A   Clear
2:35 PM 72.5 °F 54.1 °F 52% 30.09 in 10.0 mi SW 15.0 mph 20.7 mph N/A   Clear
2:55 PM 72.9 °F 55.6 °F 55% 30.09 in 10.0 mi WSW 13.8 mph - N/A   Clear
3:15 PM 75.4 °F 55.0 °F 49% 30.09 in 10.0 mi SW 15.0 mph - N/A   Clear
3:35 PM 72.9 °F 52.9 °F 49% 30.09 in 10.0 mi SW 13.8 mph 21.9 mph N/A   Clear
3:55 PM 72.5 °F 53.1 °F 50% 30.09 in 10.0 mi SW 13.8 mph - N/A   Clear
4:15 PM 74.7 °F 53.1 °F 47% 30.08 in 10.0 mi SW 16.1 mph 21.9 mph N/A   Clear
4:36 PM 73.0 °F 51.6 °F 47% 30.07 in 10.0 mi SW 13.8 mph 19.6 mph N/A   Clear
4:55 PM 74.3 °F 52.2 °F 46% 30.07 in 10.0 mi SW 13.8 mph 18.4 mph N/A   Clear
5:15 PM 70.7 °F 52.3 °F 52% 30.06 in 10.0 mi SW 12.7 mph - N/A   Clear
5:35 PM 72.3 °F 52.0 °F 49% 30.06 in 10.0 mi SSW 12.7 mph - N/A   Clear
5:55 PM 72.9 °F 48.7 °F 42% 30.06 in 10.0 mi SW 11.5 mph - N/A   Clear
6:16 PM 72.9 °F 48.0 °F 41% 30.05 in 10.0 mi South 11.5 mph - N/A   Clear
6:35 PM 75.4 °F 46.9 °F 36% 30.05 in 10.0 mi SSW 11.5 mph - N/A   Clear
6:55 PM 73.2 °F 45.1 °F 37% 30.05 in 10.0 mi SSW 8.1 mph - N/A   Clear
7:15 PM 71.6 °F 44.8 °F 38% 30.04 in 10.0 mi South 5.8 mph - N/A   Clear
7:35 PM 70.3 °F 43.9 °F 38% 30.04 in 10.0 mi SSW 8.1 mph - N/A   Clear
7:55 PM 70.3 °F 42.8 °F 37% 30.03 in 10.0 mi South 8.1 mph - N/A   Clear
8:15 PM 70.3 °F 38.7 °F 31% 30.03 in 10.0 mi South 6.9 mph - N/A   Clear
8:35 PM 70.3 °F 36.7 °F 29% 30.03 in 10.0 mi South 5.8 mph - N/A   Clear
8:55 PM 70.3 °F 40.3 °F 34% 30.03 in 10.0 mi South 5.8 mph - N/A   Clear
9:15 PM 70.3 °F 43.7 °F 38% 30.03 in 10.0 mi South 3.5 mph - N/A   Clear
9:35 PM 68.0 °F 44.1 °F 42% 30.03 in 10.0 mi South 5.8 mph - N/A   Clear
9:55 PM 68.0 °F 45.3 °F 44% 30.03 in 10.0 mi South 5.8 mph - N/A   Clear
10:15 PM 68.0 °F 45.3 °F 44% 30.02 in 10.0 mi SSE 4.6 mph - N/A   Clear
10:36 PM 68.0 °F 45.5 °F 44% 30.03 in 10.0 mi SSE 4.6 mph - N/A   Scattered Clouds
10:55 PM 68.0 °F 46.0 °F 45% 30.03 in 10.0 mi SE 3.5 mph - N/A   Overcast
11:15 PM 65.3 °F 45.5 °F 49% 30.02 in 10.0 mi SE 4.6 mph - N/A   Mostly Cloudy
11:35 PM 66.7 °F 47.5 °F 50% 30.03 in 10.0 mi Calm Calm - N/A   Mostly Cloudy
11:55 PM 68.0 °F 46.9 °F 47% 30.02 in 10.0 mi SSE 8.1 mph - N/A   Overcast